Flag for United Kingdom Weather past 2 weeks in Belfast, Northern Ireland, United Kingdom

Now
57 °F

Passing clouds.


Feels Like: 56 °F
Forecast: 51 / 63 °F
Wind: 7 mph from Southeast

Location: Belfast / Harbour

Current Time: Jul 5, 2015 at 8:04:06 AM

Latest Report: Jul 5, 2015 at 7:20 AM


Visibility: N/A

Pressure: 29.95 "Hg

Humidity: 82%

Dew point: 52 °F

Location of BelfastLocation

Historic Weather in Belfast — Graph

°F

Belfast temperature yesterday

Maximum temperature yesterday: 70 °F (at 1:50 PM)
Minimum temperature yesterday: 57 °F (at 6:20 AM)
Average temperature yesterday: 64 °F

Past Weeks' High & Low Weather Summary

 TemperatureHumidityPressure
High73 °F (Jul 1, 11:20 AM)94% (Jul 4, 8:20 AM)30.24 "Hg (Jul 4, 8:20 AM)
Low50 °F (Jun 22, 6:20 AM)43% (Jun 26, 2:50 PM)29.74 "Hg (Jul 1, 12:20 PM)
Average62 °F66%29.96 "Hg
* Reported Jun 20 7:20 AM — Jul 5 7:20 AM, Belfast, Weather by CustomWeather, © 2015

Note: Actual official high and low records may vary slightly from our data, if they occured in-between our weather recording intervals... More about our weather records

Advertising

Belfast weather history for previous 24 hours

 ConditionsComfort  
Time TempWeatherWind HumidityBarometerVisibility
7:20 AM
Sun, Jul 5
57 °FPassing clouds.7 mph82%29.95 "HgN/A
6:20 AM55 °FPassing clouds.5 mph82%29.98 "HgN/A
9:20 PM
Sat, Jul 4
61 °FPassing clouds.3 mph68%29.98 "HgN/A
8:50 PM63 °FScattered clouds.10 mph64%29.95 "HgN/A
8:20 PM63 °FScattered clouds.9 mph64%29.95 "HgN/A
7:50 PM64 °FScattered clouds.12 mph60%29.95 "HgN/A
7:20 PM64 °FPassing clouds.10 mph64%29.95 "HgN/A
6:50 PM68 °FScattered clouds.8 mph46%29.92 "HgN/A
6:20 PM68 °FScattered clouds.10 mph46%29.92 "HgN/A
5:50 PM66 °FPassing clouds.9 mph52%29.92 "HgN/A
5:20 PM68 °FPassing clouds.9 mph49%29.92 "HgN/A
4:50 PM68 °FPassing clouds.12 mph49%29.92 "HgN/A
4:20 PM68 °FPassing clouds.13 mph46%29.92 "HgN/A
3:50 PM70 °FPassing clouds.14 mph43%29.89 "HgN/A
3:20 PM70 °FPassing clouds.12 mph43%29.89 "HgN/A
2:50 PM70 °FPassing clouds.14 mph50%29.89 "HgN/A
2:20 PM68 °FScattered clouds.13 mph53%29.89 "HgN/A
1:50 PM70 °FScattered clouds.12 mph53%29.86 "HgN/A
1:20 PM66 °FScattered clouds.13 mph64%29.86 "HgN/A
12:50 PM66 °FLight rain. Broken clouds.8 mph73%29.83 "HgN/A
12:20 PM64 °FBroken clouds.14 mph78%29.83 "HgN/A
11:50 AM63 °FBroken clouds.15 mph83%29.83 "HgN/A
11:20 AM63 °FScattered showers. Partly sunny.10 mph83%29.83 "Hg5 mi
10:50 AM63 °FScattered showers. Partly sunny.15 mph83%29.83 "Hg5 mi
10:20 AM63 °FScattered showers. Partly sunny.15 mph83%29.80 "Hg5 mi
9:50 AM61 °FScattered showers. Partly sunny.15 mph88%29.83 "Hg5 mi
9:20 AM61 °FScattered showers. Broken clouds.6 mph88%29.83 "Hg4 mi
8:50 AM59 °FDrizzle. Broken clouds.6 mph88%29.83 "Hg2 mi
8:20 AM57 °FDrizzle. Broken clouds.13 mph94%29.83 "Hg1 mi
Weather by CustomWeather, © 2015

See weather overviewHow to use our weather pages